Regional Weather Roundup
Issued by NWS Burlington, VT

Current Version | Previous Version | Text Only | Print | Product List | Glossary Off
Versions: 1 2 3 4 5 6 7 8 9 10 11 12 13 14 15 16 17 18 19 20 21 22 23 24 25 26 27 28 29 30 31 32 33 34 35 36 37 38 39 40 41 42 43 44 45 46 47 48 49 50

000
ASUS41 KBTV 210830
RWRBTV
VERMONT REGIONAL WEATHER ROUNDUP
NATIONAL WEATHER SERVICE BURLINGTON VT
400 AM EDT SUN SEP 21 2014

NOTE: "FAIR" INDICATES FEW OR NO CLOUDS BELOW 12,000 FEET WITH NO
SIGNIFICANT WEATHER AND/OR OBSTRUCTIONS TO VISIBILITY.

* THESE REPORTS ARE NOT UNDER NWS QUALITY CONTROL AND/OR DO NOT
  REPORT WEATHER SUCH AS PRECIPITATION AND FOG.

VTZ001>019-210900-
_____VERMONT_____


CITY           SKY/WX    TMP DP  RH WIND       PRES   REMARKS
BURLINGTON     MOSUNNY   65  54  67 S20G30    29.83F
MONTPELIER     MOSUNNY   57  53  86 S10       29.94F
MORRISVILLE    MOSUNNY   61  54  77 W3        29.88F
ST. JOHNSBURY*   N/A     58  53  84 MISG      29.91F
MIDDLEBURY*    FAIR      64  56  73 S10G20    29.88F
RUTLAND*       MOSUNNY   57  52  82 SE8       29.91F
SPRINGFIELD    SUNNY     51  50  96 CALM      29.96F
HIGHGATE*      FAIR      65  55  71 S12G18    29.79F
NEWPORT*       FAIR      58  55  87 S12       29.87F
BENNINGTON     CLOUDY    63  58  83 NE5       29.94F
GALLUP MILLS*    N/A     52 N/A N/A MISG        N/A
UNION VILLAGE*   N/A     52 N/A N/A MISG        N/A
MT. MANSFIELD*   N/A     50 N/A N/A W16G37      N/A

_____LAKE CHAMPLAIN_____


CITY           SKY/WX    TMP DP  RH WIND       PRES   REMARKS
BURTON ISLAND*   N/A     66  57  72 SE28        N/A
COLCHESTER RF*   N/A     64  57  77 S35         N/A
DIAMOND ISL*     N/A     63  55  77 SE16        N/A

$$

NYZ007-026>031-035-052-083-210900-
_____NORTHERN NEW YORK_____


CITY           SKY/WX    TMP DP  RH WIND       PRES   REMARKS
PLATTSBURGH    MOSUNNY   63  56  78 S17G24    29.80F
SARANAC LAKE   PTSUNNY   62  54  74 SW13G22   29.82F
MASSENA        PTSUNNY   69  58  67 S17G26    29.71F
OGDENSBURG*    MOSUNNY   66  59  77 S12G21    29.70F
POTSDAM*       MOSUNNY   70  61  73 SW17G30   29.72F
PARISHVILLE*     N/A     64 N/A N/A S16         N/A
WATERTOWN      PTSUNNY   70  55  59 S17G32    29.73F
FT DRUM        SUNNY     67  55  66 S20G29    29.74F
ALBANY         MOSUNNY   63  58  83 S8        29.91F
GLENS FALLS    MOSUNNY   54  52  93 W5        29.91F FOG

$$
NHZ002-005-011-210900-
_____NEW HAMPSHIRE_____


CITY           SKY/WX    TMP DP  RH WIND       PRES   REMARKS
LEBANON        SUNNY     53  50  89 CALM      29.94F FOG
KEENE          CLOUDY    63  54  72 S8        29.96F
MT WASHINGTON  FOG       45  45 100 W58G64      N/A  VSB 1/16
PLYMOUTH       CLOUDY    51  51 100 CALM      29.97F FOG
WHITEFIELD     SUNNY     51  50  96 CALM      29.92F FOG

$$

_____REGIONAL QUEBEC LOCATIONS_____


CITY           SKY/WX    TMP DP  RH WIND       PRES   REMARKS
MONTREAL       PTSUNNY   64  57  77 S17       29.71F
QUEBEC CITY    CLOUDY    59  57  94 CALM      29.74F
SHERBROOKE     SUNNY     63  55  77 S12G20    29.83F

_____REGIONAL ONTARIO LOCATIONS_____


CITY           SKY/WX    TMP DP  RH WIND       PRES   REMARKS
OTTAWA         PTSUNNY   66  59  77 S13G22    29.66F

______KEY______
VSB  - VISIBILITY IN MILES
WCI  - WIND CHILL INDEX
HX   - HEAT INDEX
$$
NNNN



USA.gov is the U.S. government's official web portal to all federal, state and local government web resources and services.